CAPE
21 18 19 17 19 30 18 15 14 12 13 5 0 0 0 0 0 0 0 0 0 0 0 0 0 0 0 4 1 0 0 0 0 0 0 0 0 0 0 0 0 0 0 0
23 20 25 19 33 29 17 3 1 28 42 3 1 0 0 0 0 0 0 0 0 0 0 0 0 0 6 0 2 1 0 0 0 0 0 0 0 0 0 0 0 0 0 0
21 20 26 24 30 17 12 0 1 6 16 3 0 0 0 0 0 0 0 0 0 0 0 0 0 0 0 0 19 2 1 0 0 0 0 0 0 0 0 0 0 0 0 0
18 17 19 20 30 15 9 0 0 13 4 0 1 2 1 0 0 0 0 0 0 0 0 0 0 0 0 0 14 15 0 0 0 0 0 0 0 0 0 0 0 0 0 0
10 15 20 18 27 14 10 0 0 9 29 6 0 0 0 1 0 1 0 0 0 0 0 0 0 0 0 0 0 0 0 0 0 0 0 0 0 0 0 0 0 0 0 0
11 23 17 22 24 14 8 0 1 21 2 15 1 0 0 0 0 0 0 0 0 0 0 0 0 0 0 0 0 0 0 0 0 0 0 0 0 0 0 0 0 0 0 0
23 25 25 23 19 21 12 3 3 0 5 0 6 1 0 0 0 0 0 0 0 0 0 0 0 0 0 0 0 0 0 10 4 0 0 0 0 0 0 0 0 0 0 0
36 31 19 11 24 29 20 2 5 3 0 7 7 4 0 0 0 0 0 0 0 0 0 0 0 0 0 0 0 0 0 6 12 0 1 0 0 0 0 0 0 0 0 0
11 4 2 42 38 33 26 7 14 10 6 0 0 4 9 0 0 0 0 0 0 0 0 4 0 0 0 0 0 0 0 10 17 0 3 0 0 0 0 0 0 0 0 0
17 28 26 14 16 17 22 13 10 14 0 0 1 4 7 1 0 0 0 0 0 0 0 3 0 0 0 0 0 1 0 12 4 0 3 0 0 0 0 0 0 0 0 0
17 9 10 14 11 14 21 12 16 9 0 0 6 13 18 12 1 0 0 0 0 0 2 2 0 0 0 0 2 7 4 1 0 3 0 0 0 0 0 1 0 0 0 0
7 7 6 7 6 3 7 4 8 4 1 1 0 14 6 16 4 0 0 0 0 0 0 0 0 0 0 0 0 0 0 0 0 0 0 0 0 12 26 20 0 0 0 0
2 3 2 6 4 8 14 6 3 6 1 1 2 0 0 0 3 1 0 0 0 0 0 0 0 0 0 0 0 0 0 0 0 0 0 0 0 0 0 0 1 12 4 0
24 22 20 13 10 9 18 26 19 1 1 0 0 0 0 0 0 1 0 0 0 5 1 3 0 0 0 0 0 0 0 0 0 0 0 0 0 0 0 0 0 44 22 0
16 21 27 26 16 23 35 9 9 5 0 0 0 0 0 0 1 0 1 0 0 3 4 0 0 0 3 0 0 0 0 0 8 0 0 0 0 0 0 0 0 1 19 1
7 11 15 11 20 32 18 0 5 0 0 1 0 0 0 0 0 0 4 20 8 1 2 0 0 0 13 5 0 0 0 0 1 0 0 0 0 0 0 0 0 0 0 0
14 12 21 17 22 34 3 0 0 7 4 0 1 0 1 0 0 0 4 23 3 7 3 2 4 16 10 0 0 1 2 1 0 1 0 0 0 1 0 0 0 0 0 0
13 23 29 31 28 7 6 0 2 5 4 1 0 1 16 22 5 4 11 9 29 20 0 0 12 3 0 0 0 0 0 0 0 0 0 3 0 0 0 1 0 0 0 0
60 93 49 3 3 4 6 3 1 2 0 0 0 0 0 9 14 16 17 12 2 0 3 2 2 0 0 3 0 0 0 4 4 2 2 0 3 2 2 2 0 1 8 6
1 0 1 0 14 1 0 0 0 0 0 0 0 0 0 0 0 0 5 1 5 0 0 0 0 1 1 0 0 0 1 3 2 2 0 2 5 7 8 9 7 6 6 4
0 0 0 6 3 0 1 0 0 0 0 0 0 0 0 0 0 0 0 0 0 0 0 0 1 1 2 0 1 1 1 2 1 1 1 1 2 4 4 4 3 2 2 3
0 0 0 0 0 0 0 0 0 0 0 0 0 0 1 1 0 0 0 0 0 0 0 0 0 1 0 0 1 0 0 1 0 0 0 0 1 1 2 1 1 0 0 0
0 0 0 0 0 0 0 0 0 0 0 0 0 0 0 0 0 0 0 0 0 0 0 0 0 0 0 0 0 0 0 0 0 0 0 0 0 0 0 0 0 0 0 0
0 0 0 0 0 0 0 0 0 0 0 0 0 1 1 0 0 0 0 0 0 0 0 0 0 0 0 0 0 0 0 0 0 0 0 0 0 0 0 0 0 0 0 0
0 0 0 0 0 0 0 0 0 0 0 0 0 0 0 0 0 0 0 0 0 0 0 0 0 0 0 0 0 0 0 0 0 0 0 0 0 0 0 0 0 0 0 0
0 0 0 0 0 0 0 0 0 1 0 0 0 0 0 0 0 0 0 0 0 0 0 0 0 0 0 0 0 0 0 0 0 0 0 0 0 0 0 0 0 0 0 0
0 0 0 0 0 0 0 0 0 1 0 0 0 0 1 0 0 0 0 0 0 0 0 0 0 0 0 0 0 0 0 0 0 0 0 0 0 0 0 0 0 0 0 0
CIN
-0 -0 -0 -0 -1 -5 -1 -1 -0 -3 -13 -0 -0 -0 -0 -0 -0 -0 -0 -0 -0 -0 -0 -0 -0 -0 -0 -30 -9 -0 -0 -0 -0 -0 -0 -0 -0 -0 -0 -0 -0 -0 -0 -0
-0 -0 -0 -0 -7 -2 -4 -5 -0 -1 -0 -1 -0 -0 -0 -0 -1 -0 -0 -0 -0 -0 -0 -0 -0 -0 -19 -0 -41 -6 -0 -0 -0 -0 -0 -0 -0 -0 -0 -0 -0 -0 -0 -0
-0 -0 -0 -0 -9 -10 -7 -0 -2 -0 -1 -6 -0 -0 -0 -0 -0 -0 -0 -0 -0 -0 -0 -0 -0 -0 -0 -0 -16 -19 -27 -0 -0 -0 -0 -0 -0 -0 -0 -0 -0 -0 -0 -0
-0 -0 -0 -0 -2 -7 -15 -0 -0 -5 -0 -0 -0 -4 -5 -2 -1 -1 -0 -0 -0 -0 -0 -0 -0 -0 -0 -0 -33 -30 -0 -0 -0 -0 -0 -0 -0 -0 -0 -0 -0 -0 -0 -0
-0 -0 -0 -2 -2 -8 -0 -0 -1 -1 -0 -1 -2 -0 -8 -1 -0 -2 -4 -0 -0 -0 -0 -0 -0 -0 -0 -0 -0 -0 -0 -0 -0 -0 -0 -0 -0 -0 -0 -0 -0 -0 -0 -0
-0 -0 -1 -2 -2 -2 -0 -0 -0 -0 -0 -0 -3 -0 -0 -0 -0 -0 -0 -0 -0 -0 -0 -0 -0 -0 -0 -0 -0 -0 -0 -1 -0 -0 -0 -0 -0 -0 -0 -0 -0 -0 -0 -0
-0 -1 -1 -2 -2 -0 -0 -0 -0 -0 -0 -0 -0 -1 -1 -0 -0 -0 -0 -0 -0 -0 -0 -0 -0 -0 -0 -0 -0 -0 -0 -10 -25 -0 -0 -0 -0 -0 -0 -0 -0 -0 -0 -0
-1 -2 -2 -2 -0 -0 -0 -0 -0 -0 -2 -0 -2 -2 -0 -0 -0 -0 -0 -0 -0 -0 -0 -13 -0 -0 -0 -0 -0 -0 -0 -11 -5 -0 -3 -0 -0 -0 -0 -0 -0 -0 -0 -0
-4 -3 -1 -0 -0 -0 -0 -0 -0 -0 -0 -0 -3 -7 -0 -0 -0 -0 -0 -0 -0 -0 -0 -1 -0 -0 -0 -0 -0 -0 -0 -19 -3 -1 -3 -0 -0 -0 -0 -0 -0 -0 -0 -0
-0 -0 -0 -0 -1 -0 -0 -0 -0 -0 -0 -0 -6 -0 -1 -0 -0 -0 -0 -0 -0 -0 -0 -0 -0 -0 -0 -0 -3 -0 -0 -3 -3 -11 -4 -0 -0 -0 -0 -0 -0 -0 -0 -0
-0 -0 -1 -0 -0 -0 -0 -0 -0 -0 -0 -0 -0 -10 -0 -0 -0 -0 -0 -0 -0 -0 -1 -1 -0 -0 -4 -0 -12 -15 -13 -9 -0 -2 -4 -0 -0 -0 -0 -18 -0 -0 -0 -0
-2 -2 -2 -2 -1 -0 -0 -0 -0 -0 -0 -0 -0 -25 -19 -10 -36 -0 -0 -0 -0 -0 -0 -0 -0 -0 -0 -0 -0 -0 -1 -0 -0 -0 -0 -0 -0 -101 -72 -83 -0 -0 -14 -0
-0 -2 -1 -3 -3 -4 -0 -0 -1 -0 -0 -0 -0 -0 -0 -1 -48 -2 -0 -0 -8 -0 -0 -0 -0 -0 -0 -0 -0 -0 -0 -0 -0 -0 -0 -0 -0 -0 -0 -0 -89 -109 -32 -0
-7 -3 -1 -0 -1 -1 -1 -0 -0 -1 -0 -0 -0 -0 -0 -0 -0 -17 -0 -0 -1 -11 -3 -1 -1 -0 -0 -0 -0 -0 -0 -3 -0 -0 -0 -0 -0 -0 -0 -0 -6 -108 -82 -0
-12 -7 -5 -5 -3 -0 -0 -0 -0 -5 -0 -0 -0 -0 -0 -0 -17 -0 -18 -1 -0 -0 -0 -0 -0 -0 -12 -0 -0 -0 -0 -0 -14 -0 -0 -0 -0 -0 -0 -0 -0 -74 -136 -19
-11 -11 -19 -9 -10 -5 -0 -0 -0 -8 -0 -1 -2 -0 -0 -0 -0 -0 -20 -3 -2 -0 -0 -0 -0 -23 -4 -4 -0 -0 -0 -0 -0 -0 -0 -0 -0 -0 -0 -0 -0 -0 -0 -0
-7 -7 -11 -10 -8 -0 -1 -0 -0 -0 -1 -0 -5 -0 -8 -11 -0 -0 -10 -11 -4 -0 -0 -0 -1 -9 -6 -0 -0 -0 -0 -0 -0 -0 -0 -0 -0 -0 -0 -0 -0 -0 -0 -0
-7 -2 -4 -5 -0 -1 -0 -0 -0 -1 -1 -0 -5 -4 -1 -2 -0 -2 -4 -6 -3 -0 -0 -0 -3 -4 -0 -0 -0 -0 -0 -0 -0 -0 -0 -0 -0 -0 -0 -0 -0 -0 -0 -0
-3 -0 -0 -0 -0 -0 -0 -0 -4 -10 -0 -11 -0 -0 -0 -7 -4 -8 -4 -11 -8 -1 -2 -3 -1 -0 -0 -0 -0 -0 -0 -0 -0 -0 -0 -0 -0 -0 -0 -0 -0 -0 -0 -0
-1 -0 -0 -0 -0 -0 -1 -0 -0 -0 -1 -0 -0 -0 -0 -0 -0 -0 -9 -6 -13 -3 -0 -0 -0 -0 -0 -0 -0 -0 -0 -0 -0 -0 -0 -0 -0 -0 -0 -0 -0 -0 -0 -0
-0 -0 -0 -0 -3 -0 -0 -0 -0 -0 -0 -0 -0 -0 -0 -0 -0 -0 -0 -0 -0 -6 -0 -0 -0 -0 -0 -0 -0 -0 -0 -0 -0 -0 -0 -0 -0 -0 -0 -0 -0 -0 -0 -0
-0 -0 -0 -0 -0 -0 -0 -0 -0 -0 -0 -0 -0 -0 -0 -0 -0 -0 -0 -0 -0 -0 -0 -0 -0 -0 -0 -0 -0 -0 -0 -0 -0 -0 -0 -0 -0 -0 -0 -0 -0 -0 -0 -0
-0 -0 -0 -0 -0 -0 -0 -0 -0 -0 -0 -0 -0 -0 -0 -0 -0 -0 -0 -0 -0 -0 -0 -0 -0 -0 -0 -0 -0 -0 -0 -0 -0 -0 -0 -0 -0 -0 -0 -0 -0 -0 -0 -0
-0 -0 -0 -0 -0 -0 -0 -0 -0 -0 -0 -0 -0 -0 -0 -0 -0 -0 -0 -0 -0 -0 -0 -0 -0 -0 -0 -0 -0 -0 -0 -0 -0 -0 -0 -0 -0 -0 -0 -0 -0 -0 -0 -0
-0 -0 -0 -0 -0 -0 -0 -0 -0 -0 -0 -0 -0 -0 -0 -0 -0 -0 -0 -0 -0 -0 -0 -0 -0 -0 -0 -0 -0 -0 -0 -0 -0 -0 -0 -0 -0 -0 -0 -0 -0 -0 -0 -0
-0 -0 -0 -0 -0 -0 -0 -0 -0 -0 -0 -0 -0 -0 -0 -0 -0 -0 -0 -0 -0 -0 -0 -0 -0 -0 -0 -0 -0 -0 -0 -0 -0 -0 -0 -0 -0 -0 -0 -0 -0 -0 -0 -0
-0 -0 -0 -0 -0 -0 -0 -0 -0 -0 -0 -0 -0 -0 -0 -0 -0 -0 -0 -0 -0 -0 -0 -0 -0 -0 -0 -0 -0 -0 -0 -0 -0 -0 -0 -0 -0 -0 -0 -0 -0 -0 -0 -0
Wind_Speed
34 32 32 28 24 23 23 22 30 16 7 24 28 38 32 30 29 31 33 29 30 29 26 26 24 22 22 23 21 19 21 24 31 37 34 31 26 26 24 32 34 32 36 38
34 35 32 26 21 19 19 23 26 18 16 31 34 31 35 34 31 31 29 31 31 33 35 34 27 24 20 21 19 20 20 24 30 29 27 24 26 25 28 33 32 40 44 33
35 36 31 25 19 21 18 23 25 22 24 26 31 33 33 34 31 34 28 28 26 26 26 26 31 29 23 24 23 21 21 23 24 29 27 26 31 33 32 30 36 40 45 45
38 38 31 23 22 23 19 22 24 22 22 29 29 30 32 34 33 29 28 31 32 29 31 28 29 28 32 26 24 25 25 31 28 29 30 30 35 36 36 38 38 43 46 48
43 40 29 24 27 21 25 24 24 27 34 37 33 33 37 35 32 30 29 31 26 29 35 34 36 36 30 29 29 28 26 32 29 35 33 36 41 37 37 38 37 43 48 53
46 42 28 29 25 22 30 29 35 40 42 42 43 46 39 37 30 31 34 27 27 30 32 30 33 31 32 35 34 34 31 30 31 39 30 32 43 38 36 38 38 39 48 48
49 36 32 29 46 39 40 33 30 40 47 46 48 43 47 43 39 36 29 33 25 22 19 24 24 27 31 29 32 29 32 30 31 36 32 44 38 30 32 39 42 41 46 47
48 34 33 52 52 53 52 38 33 40 49 47 43 46 41 44 43 42 36 28 32 24 26 22 22 21 23 26 29 26 24 25 31 36 38 42 46 37 34 39 51 41 45 45
39 53 53 53 53 54 51 38 27 32 41 50 31 37 29 35 39 39 40 38 27 23 25 24 24 24 21 21 20 17 17 20 25 26 34 38 31 28 28 27 48 33 34 38
50 52 52 52 52 53 36 34 24 28 31 31 20 26 35 27 27 32 32 30 29 27 29 28 28 28 23 24 20 17 17 21 26 28 31 33 30 30 26 33 34 36 36 37
47 47 45 39 35 34 31 32 21 26 31 30 22 21 24 26 25 28 24 20 24 23 28 27 25 26 25 26 22 19 18 19 23 23 28 36 18 22 26 30 33 36 39 37
41 38 33 29 27 29 28 31 23 21 28 27 25 25 23 22 22 28 24 27 22 21 22 24 24 27 25 25 30 21 27 21 26 22 25 19 19 26 29 31 32 38 38 36
38 33 29 28 28 26 24 27 21 24 25 25 24 28 29 23 20 21 26 28 23 24 21 21 24 26 21 24 28 26 25 22 26 26 29 32 33 31 32 32 29 34 34 33
25 24 22 22 24 23 23 27 22 25 25 30 26 22 27 25 27 27 26 25 22 24 22 26 27 27 23 28 29 28 26 24 28 33 37 37 37 32 36 38 38 39 37 33
24 21 18 17 18 19 19 20 19 20 24 26 31 28 27 26 24 26 26 27 28 24 27 24 28 26 25 25 27 30 27 30 30 33 27 28 31 32 34 33 33 34 34 33
20 19 17 17 18 18 18 17 21 19 19 25 27 21 21 25 23 23 23 23 21 25 23 25 26 23 22 27 30 26 27 28 29 33 35 36 37 34 33 34 32 31 30 28
24 15 16 18 20 17 18 17 12 16 19 20 25 26 24 19 21 24 25 23 22 21 24 26 25 22 20 26 33 27 27 26 28 28 31 28 27 30 33 32 30 31 30 29
8 16 19 20 19 15 18 19 9 11 14 15 19 21 18 14 18 22 23 25 24 20 22 13 18 19 23 27 25 29 33 34 33 28 28 30 28 29 30 29 27 29 29 28
25 21 23 21 22 23 20 8 8 11 16 17 18 16 16 15 16 17 20 20 22 22 23 26 18 22 23 27 31 33 33 32 33 34 34 30 29 30 29 28 26 26 26 25
26 28 27 24 24 18 17 19 22 25 26 25 26 22 26 23 18 19 19 23 22 22 25 14 22 26 18 26 28 28 29 29 29 30 29 31 30 29 29 26 25 23 23 23
21 25 25 25 24 20 20 24 26 26 25 25 24 27 25 21 19 15 15 20 21 25 21 21 24 22 21 23 24 24 25 25 24 22 22 23 23 23 23 24 23 21 21 19
25 32 27 22 20 18 20 22 21 22 24 19 18 15 12 15 15 15 18 18 19 23 18 20 25 21 22 22 20 21 21 20 20 19 19 19 18 19 18 19 19 18 16 17
20 18 19 18 16 18 22 26 22 19 17 17 17 13 15 15 13 13 15 18 20 14 20 24 22 20 20 19 18 18 18 16 15 15 16 17 18 17 16 17 17 15 14 13
16 16 18 17 17 16 16 18 19 17 19 18 17 15 14 14 15 15 16 17 15 20 25 25 20 17 16 15 14 14 15 15 15 15 16 16 16 16 16 16 15 14 13 13
12 12 14 13 14 14 16 15 17 15 17 15 13 13 12 12 12 15 14 16 21 22 24 19 14 12 11 11 12 12 14 15 16 16 16 16 16 16 16 17 17 16 16 16
11 10 13 12 14 12 12 13 14 14 14 14 10 13 16 18 16 18 18 19 19 19 14 9 8 8 9 10 10 11 16 17 18 18 18 18 19 17 19 19 18 18 18 18
10 11 8 14 16 17 14 15 16 18 21 19 17 17 19 18 19 17 17 17 12 4 5 7 7 8 10 12 12 15 15 17 18 19 20 18 17 17 18 18 19 19 19 19
Wind_Direction
290 292 291 296 301 302 302 297 285 295 259 264 269 261 265 273 273 271 271 273 270 274 278 275 274 271 284 291 288 272 271 270 265 262 266 272 279 280 278 270 274 280 282 280
288 286 287 292 294 294 299 289 284 286 259 264 259 266 262 265 268 267 270 269 272 271 271 268 273 275 282 297 291 279 283 273 268 269 271 276 275 280 283 280 278 273 274 281
284 280 284 287 286 284 281 286 283 270 258 267 260 258 258 258 263 262 266 270 272 272 271 271 267 270 278 292 286 289 284 276 274 269 272 276 273 276 282 283 275 276 271 277
279 277 281 281 277 276 274 273 271 271 266 255 260 255 258 254 258 262 266 264 263 269 268 272 270 274 274 278 285 283 280 270 276 278 279 279 278 278 278 279 279 274 275 274
271 271 277 275 271 270 263 266 263 261 258 247 252 251 251 253 256 260 264 260 271 268 264 266 266 271 273 272 279 279 283 274 278 276 279 279 275 278 280 282 285 279 276 272
265 268 274 269 265 258 262 261 254 242 233 236 237 231 244 249 257 260 253 265 270 268 269 274 270 270 275 270 272 273 278 277 278 275 282 282 276 279 279 281 284 284 279 280
260 271 269 266 247 228 251 254 252 247 233 229 231 235 227 239 239 246 253 249 264 273 278 284 277 273 271 277 272 268 273 276 278 276 283 274 283 292 287 283 281 282 284 285
262 269 267 239 231 226 233 248 251 249 230 233 232 232 236 231 236 239 247 254 249 270 272 280 281 278 278 274 269 270 270 274 276 276 277 284 286 290 288 289 279 283 283 287
225 247 238 235 233 233 239 249 251 257 251 225 254 248 254 251 244 242 239 242 263 267 268 268 269 269 277 280 283 274 272 278 276 283 283 283 295 307 309 305 282 294 294 292
229 235 237 236 235 231 244 251 230 251 258 258 255 251 250 257 252 250 251 254 260 261 261 263 265 267 274 275 277 279 272 279 276 283 287 294 300 304 309 295 294 300 296 292
243 242 244 247 246 243 241 246 230 236 258 260 261 254 258 255 250 250 258 259 259 262 256 262 268 270 271 273 279 278 277 281 283 286 288 290 318 317 309 308 311 301 296 295
244 248 249 247 243 239 236 247 245 241 257 268 259 261 258 260 255 255 253 260 263 259 265 265 271 270 274 273 274 279 277 282 287 284 292 310 322 312 319 318 313 301 295 301
252 254 251 246 241 235 223 242 239 243 257 264 262 257 257 261 265 263 257 259 264 266 270 271 271 274 278 274 278 282 284 289 286 289 292 295 301 310 317 319 318 310 294 308
260 255 247 241 234 227 226 239 237 239 258 257 265 269 261 264 258 257 263 267 269 268 270 270 270 272 280 279 283 283 286 285 285 286 292 295 298 306 308 308 304 292 282 302
261 253 238 221 216 215 225 237 231 233 245 265 265 269 269 264 260 252 256 256 260 268 266 271 268 276 281 285 288 287 288 285 283 285 297 299 301 310 313 309 311 307 284 288
260 245 228 202 189 187 215 248 237 225 245 265 266 283 281 255 252 254 247 251 264 262 272 271 274 279 285 285 285 295 294 291 290 287 292 293 294 295 303 297 304 307 310 313
254 211 199 178 169 179 222 251 256 206 237 266 270 273 275 271 252 244 254 252 263 277 265 269 274 281 279 286 285 297 301 297 296 296 293 291 298 295 293 296 303 304 306 313
126 159 175 154 155 202 227 239 144 187 237 264 270 277 275 265 256 248 247 248 255 272 279 278 276 281 281 285 294 291 282 276 278 288 288 285 294 298 301 302 310 305 303 314
109 133 145 171 197 206 210 164 181 231 241 251 257 274 277 251 251 247 240 247 253 271 273 270 286 282 280 277 281 286 279 282 282 282 282 288 293 295 299 306 313 309 307 316
138 154 166 179 188 124 174 202 206 203 211 221 233 251 235 229 235 240 235 239 246 258 255 284 271 273 292 291 287 294 287 288 288 285 287 288 288 290 293 304 310 314 315 318
162 156 157 149 168 180 194 191 195 199 205 210 221 202 217 232 233 235 255 236 243 247 261 264 263 273 290 295 293 293 294 296 295 302 302 309 305 302 307 305 308 315 318 327
152 149 158 169 175 188 191 192 199 205 205 221 220 227 240 233 233 238 237 247 253 249 282 271 261 284 298 296 303 311 323 311 306 304 311 319 320 320 326 324 317 322 319 327
156 161 165 182 197 186 178 175 187 196 211 215 214 225 227 230 244 251 257 250 250 283 269 250 267 293 300 305 309 321 334 337 333 333 339 342 347 342 343 341 332 334 340 336
177 180 174 181 186 196 205 201 201 211 210 215 220 228 242 248 241 249 251 259 275 264 240 246 271 295 304 315 316 330 342 349 352 354 359 4 5 12 11 11 7 8 4 355
211 212 200 209 212 214 210 218 213 230 226 231 244 256 267 260 258 260 270 268 243 243 239 257 284 304 319 321 336 344 3 10 11 12 16 19 23 22 22 20 23 23 22 18
230 241 208 222 209 224 232 240 239 244 233 231 266 241 230 224 233 232 240 237 237 246 261 288 311 347 1 2 3 5 26 30 32 34 35 31 31 28 33 31 23 20 22 19
230 211 239 205 194 188 211 215 210 214 192 208 215 223 215 219 233 236 245 251 260 323 335 357 11 28 32 32 27 31 30 33 36 34 34 29 22 23 21 18 12 13 12 11